GW1144 Weather Reports


time (UTC)temp
C
wind
direction
speed
KPH
gust
KPH
rain 1hr
cm
rain 24hr
cm
rain mn
cm
humidity
%
barometer
mb
20260901094559 14 0 0.0 1.6 0.00 0.00 0.00 90 1013.8
20260901093128 15 0 0.0 0.0 0.00 0.00 0.00 90 1013.8
20260901091604 15 0 0.0 0.0 0.00 0.00 0.00 90 1013.7
20260901090058 15 0 0.0 0.0 0.00 0.00 0.00 91 1013.6
20260901084557 15 0 0.0 0.0 0.00 0.00 0.00 90 1013.8
20260901083101 15 0 0.0 1.6 0.00 0.00 0.00 90 1013.5
20260901081613 15 0 0.0 1.6 0.00 0.00 0.00 90 1013.5
20260901080106 15 0 0.0 4.8 0.00 0.00 0.00 89 1013.6
20260901074559 15 0 0.0 0.0 0.00 0.00 0.00 89 1013.6
20260901073101 16 0 0.0 0.0 0.00 0.00 0.00 89 1013.6
20260901071604 16 0 0.0 0.0 0.00 0.00 0.00 88 1013.8
20260901070105 16 0 0.0 0.0 0.00 0.00 0.00 87 1013.8
20260901064558 16 0 0.0 0.0 0.00 0.00 0.00 87 1013.9
20260901063059 16 0 0.0 0.0 0.00 0.00 0.00 87 1014.0
20260901061557 16 0 0.0 0.0 0.00 0.00 0.00 86 1014.0
20260901060104 16 0 0.0 3.2 0.00 0.00 0.00 86 1014.2
20260901054558 16 0 0.0 0.0 0.00 0.00 0.00 84 1014.2
20260901053119 17 0 0.0 0.0 0.00 0.00 0.00 83 1014.2
20260901051604 17 0 0.0 0.0 0.00 0.00 0.00 83 1014.2
20260901050100 17 0 0.0 0.0 0.00 0.00 0.00 81 1014.0
20260901044557 18 0 0.0 1.6 0.00 0.00 0.00 80 1013.9
20260901043125 18 0 0.0 1.6 0.00 0.00 0.00 79 1013.9
20260901041610 19 0 0.0 1.6 0.00 0.00 0.00 76 1013.8
20260901040106 20 0 0.0 0.0 0.00 0.00 0.00 75 1013.7
20260901034607 20 0 0.0 0.0 0.00 0.00 0.00 72 1013.7
20260901033108 21 0 0.0 1.6 0.00 0.00 0.00 72 1013.5
20260901031554 21 0 0.0 3.2 0.00 0.00 0.00 68 1013.6
20260901030104 22 162 0.0 1.6 0.00 0.00 0.00 67 1013.4
20260901024607 22 162 0.0 3.2 0.00 0.00 0.00 65 1013.3
20260901023054 23 0 0.0 1.6 0.00 0.00 0.00 63 1013.2
20260901021609 23 0 0.0 1.6 0.00 0.00 0.00 62 1013.1
20260901020104 24 228 1.6 3.2 0.00 0.00 0.00 57 1013.0
20260901014603 25 0 0.0 3.2 0.00 0.00 0.00 56 1012.8
20260901013105 25 0 0.0 4.8 0.00 0.00 0.00 54 1012.6
20260901011602 25 0 0.0 4.8 0.00 0.00 0.00 54 1012.4
20260901010106 26 192 0.0 3.2 0.00 0.00 0.00 52 1012.4
20260901004610 26 0 0.0 4.8 0.00 0.00 0.00 51 1012.4
20260901003104 27 188 0.0 6.4 0.00 0.00 0.00 49 1012.4
20260901001612 27 192 3.2 6.4 0.00 0.00 0.00 47 1012.4
20260901000108 28 227 1.6 6.4 0.00 0.00 0.00 47 1012.2
20260831234605 28 246 1.6 9.7 0.00 0.00 0.00 44 1012.3
20260831233102 29 344 1.6 8.0 0.00 0.00 0.00 42 1012.3
20260831231558 29 261 1.6 12.9 0.00 0.00 0.00 41 1012.3
20260831230108 30 300 1.6 8.0 0.00 0.00 0.00 43 1012.4
20260831224606 30 0 3.2 14.5 0.00 0.00 0.00 44 1012.3
20260831223058 30 273 4.8 12.9 0.00 0.00 0.00 43 1012.2
20260831221608 30 344 4.8 12.9 0.00 0.00 0.00 43 1012.2
20260831220128 29 329 6.4 14.5 0.00 0.00 0.00 46 1012.3
20260831214558 30 275 3.2 11.3 0.00 0.00 0.00 42 1012.1
20260831213053 30 237 4.8 12.9 0.00 0.00 0.00 40 1012.2
20260831211600 29 79 3.2 12.9 0.00 0.00 0.00 49 1012.2
20260831210100 29 277 3.2 16.1 0.00 0.00 0.00 45 1012.3
20260831204600 30 9 3.2 12.9 0.00 0.00 0.00 46 1012.3
20260831203134 29 299 6.4 17.7 0.00 0.00 0.00 46 1012.3
20260831201600 30 305 4.8 14.5 0.00 0.00 0.00 42 1012.3
20260831200058 30 294 1.6 14.5 0.00 0.00 0.00 43 1012.2
20260831194554 28 246 3.2 14.5 0.00 0.00 0.00 44 1012.1
20260831193101 28 298 3.2 9.7 0.00 0.00 0.00 49 1012.1
20260831191559 28 314 3.2 14.5 0.00 0.00 0.00 49 1012.1
20260831190135 28 311 4.8 14.5 0.00 0.00 0.00 51 1012.1
20260831184606 28 313 1.6 16.1 0.00 0.00 0.00 50 1012.1
20260831183055 28 259 8.0 19.3 0.00 0.00 0.00 51 1012.1
20260831181602 28 262 9.7 20.9 0.00 0.00 0.00 47 1012.1
20260831180058 28 292 6.4 14.5 0.00 0.00 0.00 52 1012.2
20260831174602 27 236 8.0 19.3 0.00 0.00 0.00 50 1012.2
20260831173105 27 278 8.0 17.7 0.00 0.00 0.00 57 1012.3
20260831171605 27 265 8.0 19.3 0.00 0.00 0.00 62 1012.4
20260831170105 26 250 4.8 16.1 0.00 0.00 0.00 67 1012.2
20260831164603 26 273 6.4 16.1 0.00 0.00 0.00 71 1012.3
20260831163101 25 271 4.8 12.9 0.00 0.00 0.00 75 1012.1
20260831161603 25 231 3.2 16.1 0.00 0.00 0.00 77 1012.1
20260831160134 24 282 4.8 14.5 0.00 0.00 0.00 80 1012.0
20260831154619 24 307 6.4 16.1 0.00 0.00 0.00 81 1011.8
20260831153129 24 303 8.0 17.7 0.00 0.00 0.00 81 1011.7
20260831151600 24 260 3.2 12.9 0.00 0.00 0.00 84 1011.5
20260831150100 24 299 1.6 17.7 0.00 0.00 0.00 85 1011.5
20260831144557 23 335 1.6 8.0 0.00 0.00 0.00 87 1011.3
20260831143101 22 341 3.2 16.1 0.00 0.00 0.00 89 1011.1
20260831141600 22 263 1.6 11.3 0.00 0.00 0.00 92 1010.9
20260831140058 22 328 4.8 17.7 0.00 0.00 0.00 93 1010.6
20260831134608 22 267 6.4 16.1 0.00 0.00 0.00 94 1010.3
20260831133101 21 342 4.8 11.3 0.00 0.00 0.00 95 1010.1
20260831131604 21 294 1.6 4.8 0.00 0.00 0.00 95 1010.0
20260831130119 20 237 0.0 3.2 0.00 0.00 0.00 94 1010.0
20260831124602 20 0 0.0 1.6 0.00 0.00 0.00 94 1009.7
20260831123059 20 0 0.0 1.6 0.00 0.00 0.00 93 1009.2
20260831121602 20 0 0.0 0.0 0.00 0.00 0.00 93 1008.8
20260831120147 20 0 0.0 0.0 0.00 0.00 0.00 93 1008.6
20260831114600 20 0 0.0 0.0 0.00 0.00 0.00 93 1008.4
20260831113104 20 0 0.0 3.2 0.00 0.00 0.00 93 1008.5
20260831111601 20 0 0.0 0.0 0.00 0.00 0.00 93 1008.1
20260831110100 20 0 0.0 0.0 0.00 0.00 0.00 93 1007.9
20260831104607 20 0 0.0 0.0 0.00 0.00 0.00 93 1008.1
20260831103100 20 0 0.0 1.6 0.00 0.00 0.00 93 1007.9
20260831101610 20 0 0.0 1.6 0.00 0.00 0.00 92 1007.8
20260831100104 21 0 0.0 0.0 0.00 0.00 0.00 92 1007.6